GW5931 Weather Reports


time (UTC)temp
C
wind
direction
speed
KPH
gust
KPH
rain 1hr
cm
rain 24hr
cm
rain mn
cm
humidity
%
barometer
mb
20260504050007 11 240 16.1 27.4 0.00 0.03 0.00 54 1006.4
20260504044504 11 282 14.5 32.2 0.00 0.03 0.00 53 1006.5
20260504043101 12 261 16.1 29.0 0.00 0.03 0.00 53 1006.5
20260504041555 12 252 12.9 25.7 0.00 0.03 0.00 53 1006.5
20260504040052 12 227 12.9 30.6 0.00 0.03 0.00 53 1006.4
20260504034557 12 242 16.1 27.4 0.00 0.03 0.03 53 1006.3
20260504033056 11 222 11.3 24.1 0.00 0.03 0.03 53 1006.4
20260504031550 12 251 17.7 29.0 0.00 0.03 0.03 53 1006.4
20260504030048 11 235 12.9 24.1 0.00 0.03 0.03 55 1006.5
20260504024547 11 219 16.1 27.4 0.00 0.03 0.03 55 1006.5
20260504023044 12 215 12.9 37.0 0.00 0.03 0.03 54 1006.6
20260504021543 11 260 17.7 32.2 0.00 0.03 0.03 55 1006.7
20260504020042 11 245 12.9 24.1 0.00 0.03 0.03 56 1006.8
20260504014540 11 248 12.9 22.5 0.00 0.03 0.03 58 1006.7
20260504013042 11 240 11.3 25.7 0.00 0.03 0.03 60 1006.8
20260504011538 11 234 11.3 20.9 0.00 0.03 0.03 69 1006.8
20260504010048 9 242 4.8 11.3 0.00 0.03 0.03 81 1006.9
20260504004541 9 201 1.6 4.8 0.00 0.03 0.03 82 1007.3
20260504004537 9 200 1.6 4.8 0.00 0.03 0.03 82 1007.3
20260504003035 9 201 0.0 4.8 0.00 0.03 0.03 82 1007.3
20260504001537 9 209 0.0 4.8 0.00 0.03 0.03 82 1007.4
20260504000037 10 209 1.6 8.0 0.03 0.03 0.03 81 1007.6
20260503234534 10 240 3.2 11.3 0.03 0.03 0.03 79 1007.6
20260503233030 10 274 6.4 17.7 0.03 0.03 0.03 77 1007.4
20260503231530 10 250 4.8 20.9 0.03 0.03 0.03 73 1007.5
20260503230028 11 256 12.9 24.1 0.00 0.00 0.00 64 1007.5
20260503224527 11 257 12.9 24.1 0.00 0.00 0.00 57 1007.3
20260503223025 11 250 16.1 25.7 0.00 0.00 0.00 56 1007.1
20260503221531 11 249 16.1 35.4 0.00 0.00 0.00 54 1006.9
20260503220023 11 234 17.7 38.6 0.00 0.00 0.00 52 1007.0
20260503214525 12 226 22.5 40.2 0.00 0.00 0.00 49 1007.0
20260503213028 12 225 20.9 35.4 0.00 0.00 0.00 49 1006.7
20260503211520 12 244 17.7 30.6 0.00 0.00 0.00 48 1007.0
20260503210018 12 230 12.9 32.2 0.00 0.00 0.00 48 1007.2
20260503204523 12 225 11.3 37.0 0.00 0.00 0.00 47 1007.2
20260503203015 12 284 11.3 41.8 0.00 0.00 0.00 46 1007.2
20260503201525 13 257 16.1 32.2 0.00 0.00 0.00 44 1007.3
20260503200012 13 192 20.9 33.8 0.00 0.00 0.00 42 1007.5
20260503194509 13 269 16.1 27.4 0.00 0.00 0.00 40 1007.8
20260503193004 13 225 24.1 37.0 0.00 0.00 0.00 39 1008.1
20260503191501 13 298 19.3 40.2 0.00 0.00 0.00 39 1008.3
20260503190058 12 255 22.5 35.4 0.00 0.00 0.00 38 1008.6
20260503184557 12 234 19.3 33.8 0.00 0.00 0.00 39 1008.9
20260503183050 12 228 17.7 32.2 0.00 0.00 0.00 39 1009.2
20260503181618 12 250 17.7 35.4 0.00 0.00 0.00 38 1009.5
20260503180055 12 236 24.1 37.0 0.00 0.00 0.00 39 1009.6
20260503174553 12 254 12.9 22.5 0.00 0.00 0.00 40 1009.7
20260503173052 12 260 12.9 30.6 0.00 0.00 0.00 44 1009.9
20260503171537 11 262 14.5 24.1 0.00 0.00 0.00 46 1009.9
20260503081600 2 248 6.4 14.5 0.00 0.00 0.00 83 1011.8
20260503071556 2 240 6.4 11.3 0.00 0.00 0.00 81 1011.8
20260503054532 3 251 4.8 11.3 0.00 0.00 0.00 77 1012.1